Time,TemperatureF,DewpointF,PressureIn,WindDirection,WindDirectionDegrees,WindSpeedMPH,WindSpeedGustMPH,Humidity,HourlyPrecipIn,Conditions,Clouds,dailyrainin,SoftwareType,DateUTC
2013-12-17 02:02:00,29.0,25.0,30.15,SSW,207,0.0,0.0,85,0.00,,,0.00,,2013-12-17 08:02:00,
2013-12-17 02:22:00,29.0,25.0,30.15,SSW,207,0.0,0.0,85,0.00,,,0.00,,2013-12-17 08:22:00,
2013-12-17 02:32:00,29.0,25.0,30.15,SSW,207,0.0,0.0,85,0.00,,,0.00,,2013-12-17 08:32:00,
2013-12-17 02:42:00,29.0,25.0,30.15,SSW,207,0.0,0.0,85,0.00,,,0.00,,2013-12-17 08:42:00,
2013-12-17 02:52:00,29.0,25.0,30.15,SSW,207,0.0,0.0,85,0.00,,,0.00,,2013-12-17 08:52:00,
2013-12-17 04:02:00,28.0,25.0,30.15,NW,307,0.0,0.0,87,0.00,,,0.00,,2013-12-17 10:02:00,
2013-12-17 04:23:00,28.0,25.0,30.15,NW,307,0.0,0.0,87,0.00,,,0.00,,2013-12-17 10:23:00,
2013-12-17 04:34:00,28.0,25.0,30.15,NW,307,0.0,0.0,87,0.00,,,0.00,,2013-12-17 10:34:00,
2013-12-17 04:43:00,28.0,25.0,30.15,NW,307,0.0,0.0,87,0.00,,,0.00,,2013-12-17 10:43:00,
2013-12-17 04:53:00,28.0,25.0,30.15,NW,307,0.0,0.0,87,0.00,,,0.00,,2013-12-17 10:53:00,
2013-12-17 06:22:00,26.0,23.0,30.17,North,8,0.0,0.0,90,0.00,,,0.00,,2013-12-17 12:22:00,
2013-12-17 06:32:00,26.0,23.0,30.17,North,8,0.0,0.0,90,0.00,,,0.00,,2013-12-17 12:32:00,
2013-12-17 06:42:00,26.0,23.0,30.17,North,8,0.0,0.0,90,0.00,,,0.00,,2013-12-17 12:42:00,
2013-12-17 06:52:00,26.0,23.0,30.17,North,8,0.0,0.0,90,0.00,,,0.00,,2013-12-17 12:52:00,
2013-12-17 08:02:00,25.0,23.0,30.21,SSW,204,0.0,1.0,91,0.00,,,0.00,,2013-12-17 14:02:00,
2013-12-17 08:22:00,25.0,23.0,30.21,SSW,204,0.0,1.0,91,0.00,,,0.00,,2013-12-17 14:22:00,
2013-12-17 08:32:00,25.0,23.0,30.21,SSW,204,0.0,1.0,91,0.00,,,0.00,,2013-12-17 14:32:00,
2013-12-17 08:42:00,25.0,23.0,30.21,SSW,204,0.0,1.0,91,0.00,,,0.00,,2013-12-17 14:42:00,
2013-12-17 08:52:00,25.0,23.0,30.21,SSW,204,0.0,1.0,91,0.00,,,0.00,,2013-12-17 14:52:00,
2013-12-17 10:02:00,39.0,27.0,30.25,NW,323,2.0,7.0,62,0.00,,,0.00,,2013-12-17 16:02:00,
2013-12-17 10:23:00,39.0,27.0,30.25,NW,323,2.0,7.0,62,0.00,,,0.00,,2013-12-17 16:23:00,
2013-12-17 10:33:00,39.0,27.0,30.25,NW,323,2.0,7.0,62,0.00,,,0.00,,2013-12-17 16:33:00,
2013-12-17 10:43:00,39.0,27.0,30.25,NW,323,2.0,7.0,62,0.00,,,0.00,,2013-12-17 16:43:00,
2013-12-17 10:52:00,39.0,27.0,30.25,NW,323,2.0,7.0,62,0.00,,,0.00,,2013-12-17 16:52:00,
2013-12-17 12:22:00,44.0,30.0,30.27,NW,322,7.0,16.0,58,0.00,,,0.00,,2013-12-17 18:22:00,
2013-12-17 12:32:00,44.0,30.0,30.27,NW,322,7.0,16.0,58,0.00,,,0.00,,2013-12-17 18:32:00,
2013-12-17 12:42:00,44.0,30.0,30.27,NW,322,7.0,16.0,58,0.00,,,0.00,,2013-12-17 18:42:00,
2013-12-17 12:52:00,44.0,30.0,30.27,NW,322,7.0,16.0,58,0.00,,,0.00,,2013-12-17 18:52:00,
2013-12-17 13:01:00,44.0,30.0,30.27,NW,322,7.0,16.0,58,0.00,,,0.00,,2013-12-17 19:01:00,
2013-12-17 14:02:00,46.0,25.0,30.24,NNW,341,7.0,12.0,43,0.00,,,0.00,,2013-12-17 20:02:00,
2013-12-17 14:22:00,46.0,25.0,30.24,NNW,341,7.0,12.0,43,0.00,,,0.00,,2013-12-17 20:22:00,
2013-12-17 14:32:00,46.0,25.0,30.24,NNW,341,7.0,12.0,43,0.00,,,0.00,,2013-12-17 20:32:00,
2013-12-17 14:42:00,46.0,25.0,30.24,NNW,341,7.0,12.0,43,0.00,,,0.00,,2013-12-17 20:42:00,
2013-12-17 14:52:00,46.0,25.0,30.24,NNW,341,7.0,12.0,43,0.00,,,0.00,,2013-12-17 20:52:00,
2013-12-17 16:02:00,46.0,24.0,30.26,WNW,295,5.0,9.0,42,0.00,,,0.00,,2013-12-17 22:02:00,
2013-12-17 16:23:00,46.0,24.0,30.26,WNW,295,5.0,9.0,42,0.00,,,0.00,,2013-12-17 22:23:00,
2013-12-17 16:34:00,46.0,24.0,30.26,WNW,295,5.0,9.0,42,0.00,,,0.00,,2013-12-17 22:34:00,
2013-12-17 16:43:00,46.0,24.0,30.26,WNW,295,5.0,9.0,42,0.00,,,0.00,,2013-12-17 22:43:00,
2013-12-17 16:53:00,46.0,24.0,30.26,WNW,295,5.0,9.0,42,0.00,,,0.00,,2013-12-17 22:53:00,
2013-12-17 18:02:00,40.0,24.0,30.26,WSW,252,0.0,0.0,53,0.00,,,0.00,,2013-12-18 00:02:00,
2013-12-17 18:32:00,40.0,24.0,30.26,WSW,252,0.0,0.0,53,0.00,,,0.00,,2013-12-18 00:32:00,
2013-12-17 18:42:00,40.0,24.0,30.26,WSW,252,0.0,0.0,53,0.00,,,0.00,,2013-12-18 00:42:00,
2013-12-17 18:52:00,40.0,24.0,30.26,WSW,252,0.0,0.0,53,0.00,,,0.00,,2013-12-18 00:52:00,
2013-12-17 20:02:00,31.0,23.0,30.26,WSW,241,0.0,1.0,73,0.00,,,0.00,,2013-12-18 02:02:00,
2013-12-17 20:22:00,31.0,23.0,30.26,WSW,241,0.0,1.0,73,0.00,,,0.00,,2013-12-18 02:22:00,
2013-12-17 20:32:00,31.0,23.0,30.26,WSW,241,0.0,1.0,73,0.00,,,0.00,,2013-12-18 02:32:00,
2013-12-17 20:42:00,31.0,23.0,30.26,WSW,241,0.0,1.0,73,0.00,,,0.00,,2013-12-18 02:42:00,
2013-12-17 20:52:00,31.0,23.0,30.26,WSW,241,0.0,1.0,73,0.00,,,0.00,,2013-12-18 02:52:00,
2013-12-17 22:23:00,28.0,22.0,30.24,SSW,212,0.0,0.0,77,0.00,,,0.00,,2013-12-18 04:23:00,
2013-12-17 22:33:00,28.0,22.0,30.24,SSW,212,0.0,0.0,77,0.00,,,0.00,,2013-12-18 04:33:00,
2013-12-17 22:43:00,28.0,22.0,30.24,SSW,212,0.0,0.0,77,0.00,,,0.00,,2013-12-18 04:43:00,
2013-12-17 22:53:00,28.0,22.0,30.24,SSW,212,0.0,0.0,77,0.00,,,0.00,,2013-12-18 04:53:00,
2013-12-17 23:02:00,28.0,22.0,30.24,SSW,212,0.0,0.0,77,0.00,,,0.00,,2013-12-18 05:02:00,